Time,TemperatureF,DewpointF,PressureIn,WindDirection,WindDirectionDegrees,WindSpeedMPH,WindSpeedGustMPH,Humidity,HourlyPrecipIn,Conditions,Clouds,dailyrainin,SolarRadiationWatts/m^2,SoftwareType,DateUTC
2013-03-01 00:22:00,27.0,27.0,-100.00,NNE,14,6.0,13.0,98,0.00,,,0.00,0.000000,,2013-03-01 06:22:00,
2013-03-01 00:32:00,27.0,27.0,-100.00,NNE,14,6.0,13.0,98,0.00,,,0.00,0.000000,,2013-03-01 06:32:00,
2013-03-01 00:42:00,27.0,27.0,-100.00,NNE,14,6.0,13.0,98,0.00,,,0.00,0.000000,,2013-03-01 06:42:00,
2013-03-01 00:52:00,27.0,27.0,-100.00,NNE,14,6.0,13.0,98,0.00,,,0.00,0.000000,,2013-03-01 06:52:00,
2013-03-01 01:22:00,26.0,26.0,-100.00,North,355,6.0,10.0,98,0.00,,,0.00,0.000000,,2013-03-01 07:22:00,
2013-03-01 01:32:00,26.0,26.0,-100.00,North,355,6.0,10.0,98,0.00,,,0.00,0.000000,,2013-03-01 07:32:00,
2013-03-01 01:42:00,26.0,26.0,-100.00,North,355,6.0,10.0,98,0.00,,,0.00,0.000000,,2013-03-01 07:42:00,
2013-03-01 01:52:00,26.0,26.0,-100.00,North,355,6.0,10.0,98,0.00,,,0.00,0.000000,,2013-03-01 07:52:00,
2013-03-01 02:22:00,27.0,26.0,-100.00,NNW,348,8.0,12.0,94,0.00,,,0.00,0.000000,,2013-03-01 08:22:00,
2013-03-01 02:32:00,27.0,26.0,-100.00,NNW,348,8.0,12.0,94,0.00,,,0.00,0.000000,,2013-03-01 08:32:00,
2013-03-01 02:42:00,27.0,26.0,-100.00,NNW,348,8.0,12.0,94,0.00,,,0.00,0.000000,,2013-03-01 08:42:00,
2013-03-01 02:52:00,27.0,26.0,-100.00,NNW,348,8.0,12.0,94,0.00,,,0.00,0.000000,,2013-03-01 08:52:00,
2013-03-01 03:12:00,26.0,24.0,-100.00,NNW,348,9.0,14.0,93,0.00,,,0.00,0.000000,,2013-03-01 09:12:00,
2013-03-01 03:22:00,26.0,24.0,-100.00,NNW,348,9.0,14.0,93,0.00,,,0.00,0.000000,,2013-03-01 09:22:00,
2013-03-01 03:32:00,26.0,24.0,-100.00,NNW,348,9.0,14.0,93,0.00,,,0.00,0.000000,,2013-03-01 09:32:00,
2013-03-01 03:42:00,26.0,24.0,-100.00,NNW,348,9.0,14.0,93,0.00,,,0.00,0.000000,,2013-03-01 09:42:00,
2013-03-01 03:52:00,26.0,24.0,-100.00,NNW,348,9.0,14.0,93,0.00,,,0.00,0.000000,,2013-03-01 09:52:00,
2013-03-01 04:22:00,26.0,24.0,-100.00,NNW,345,8.0,11.0,93,0.00,,,0.00,0.000000,,2013-03-01 10:22:00,
2013-03-01 04:32:00,26.0,24.0,-100.00,NNW,345,8.0,11.0,93,0.00,,,0.00,0.000000,,2013-03-01 10:32:00,
2013-03-01 04:42:00,26.0,24.0,-100.00,NNW,345,8.0,11.0,93,0.00,,,0.00,0.000000,,2013-03-01 10:42:00,
2013-03-01 04:52:00,26.0,24.0,-100.00,NNW,345,8.0,11.0,93,0.00,,,0.00,0.000000,,2013-03-01 10:52:00,
2013-03-01 05:22:00,26.0,24.0,-100.00,NNW,348,11.0,14.0,91,0.00,,,0.00,0.000000,,2013-03-01 11:22:00,
2013-03-01 05:32:00,26.0,24.0,-100.00,NNW,348,11.0,14.0,91,0.00,,,0.00,0.000000,,2013-03-01 11:32:00,
2013-03-01 05:42:00,26.0,24.0,-100.00,NNW,348,11.0,14.0,91,0.00,,,0.00,0.000000,,2013-03-01 11:42:00,
2013-03-01 05:52:00,26.0,24.0,-100.00,NNW,348,11.0,14.0,91,0.00,,,0.00,0.000000,,2013-03-01 11:52:00,
2013-03-01 06:21:00,25.0,24.0,-100.00,NNW,339,10.0,14.0,95,0.00,,,0.00,0.000000,,2013-03-01 12:21:00,
2013-03-01 06:32:00,25.0,24.0,-100.00,NNW,339,10.0,14.0,95,0.00,,,0.00,0.000000,,2013-03-01 12:32:00,
2013-03-01 06:42:00,25.0,24.0,-100.00,NNW,339,10.0,14.0,95,0.00,,,0.00,0.000000,,2013-03-01 12:42:00,
2013-03-01 06:52:00,25.0,24.0,-100.00,NNW,339,10.0,14.0,95,0.00,,,0.00,0.000000,,2013-03-01 12:52:00,
2013-03-01 07:22:00,25.0,23.0,-100.00,NNW,332,12.0,19.0,92,0.00,,,0.00,0.000000,,2013-03-01 13:22:00,
2013-03-01 07:32:00,25.0,23.0,-100.00,NNW,332,12.0,19.0,92,0.00,,,0.00,0.000000,,2013-03-01 13:32:00,
2013-03-01 07:42:00,25.0,23.0,-100.00,NNW,332,12.0,19.0,92,0.00,,,0.00,0.000000,,2013-03-01 13:42:00,
2013-03-01 07:52:00,25.0,23.0,-100.00,NNW,332,12.0,19.0,92,0.00,,,0.00,0.000000,,2013-03-01 13:52:00,
2013-03-01 08:21:00,25.0,22.0,-100.00,NNW,333,13.0,20.0,90,0.00,,,0.00,17.000000,,2013-03-01 14:21:00,
2013-03-01 08:32:00,25.0,22.0,-100.00,NNW,333,13.0,20.0,90,0.00,,,0.00,17.000000,,2013-03-01 14:32:00,
2013-03-01 08:42:00,25.0,22.0,-100.00,NNW,333,13.0,20.0,90,0.00,,,0.00,17.000000,,2013-03-01 14:42:00,
2013-03-01 08:52:00,25.0,22.0,-100.00,NNW,333,13.0,20.0,90,0.00,,,0.00,17.000000,,2013-03-01 14:52:00,
2013-03-01 09:21:00,25.0,23.0,-100.00,North,359,12.0,18.0,92,0.00,,,0.00,101.000000,,2013-03-01 15:21:00,
2013-03-01 09:32:00,25.0,23.0,-100.00,North,359,12.0,18.0,92,0.00,,,0.00,101.000000,,2013-03-01 15:32:00,
2013-03-01 09:42:00,25.0,23.0,-100.00,North,359,12.0,18.0,92,0.00,,,0.00,101.000000,,2013-03-01 15:42:00,
2013-03-01 09:52:00,25.0,23.0,-100.00,North,359,12.0,18.0,92,0.00,,,0.00,101.000000,,2013-03-01 15:52:00,
2013-03-01 10:21:00,26.0,23.0,-100.00,NNW,343,12.0,21.0,87,0.00,,,0.00,215.000000,,2013-03-01 16:21:00,
2013-03-01 10:32:00,26.0,23.0,-100.00,NNW,343,12.0,21.0,87,0.00,,,0.00,215.000000,,2013-03-01 16:32:00,
2013-03-01 10:42:00,26.0,23.0,-100.00,NNW,343,12.0,21.0,87,0.00,,,0.00,215.000000,,2013-03-01 16:42:00,
2013-03-01 10:51:00,26.0,23.0,-100.00,NNW,343,12.0,21.0,87,0.00,,,0.00,215.000000,,2013-03-01 16:51:00,
2013-03-01 11:11:00,27.0,23.0,-100.00,North,359,14.0,19.0,85,0.00,,,0.00,301.000000,,2013-03-01 17:11:00,
2013-03-01 11:21:00,27.0,23.0,-100.00,North,359,14.0,19.0,85,0.00,,,0.00,301.000000,,2013-03-01 17:21:00,
2013-03-01 11:32:00,27.0,23.0,-100.00,North,359,14.0,19.0,85,0.00,,,0.00,301.000000,,2013-03-01 17:32:00,
2013-03-01 11:41:00,27.0,23.0,-100.00,North,359,14.0,19.0,85,0.00,,,0.00,301.000000,,2013-03-01 17:41:00,
2013-03-01 11:52:00,27.0,23.0,-100.00,North,359,14.0,19.0,85,0.00,,,0.00,301.000000,,2013-03-01 17:52:00,
2013-03-01 12:22:00,27.0,22.0,-100.00,North,354,13.0,20.0,81,0.00,,,0.00,452.000000,,2013-03-01 18:22:00,
2013-03-01 12:32:00,27.0,22.0,-100.00,North,354,13.0,20.0,81,0.00,,,0.00,452.000000,,2013-03-01 18:32:00,
2013-03-01 12:42:00,27.0,22.0,-100.00,North,354,13.0,20.0,81,0.00,,,0.00,452.000000,,2013-03-01 18:42:00,
2013-03-01 12:52:00,27.0,22.0,-100.00,North,354,13.0,20.0,81,0.00,,,0.00,452.000000,,2013-03-01 18:52:00,
2013-03-01 13:21:00,29.0,21.0,-100.00,NNW,338,13.0,20.0,72,0.00,,,0.00,692.000000,,2013-03-01 19:21:00,
2013-03-01 13:32:00,29.0,21.0,-100.00,NNW,338,13.0,20.0,72,0.00,,,0.00,692.000000,,2013-03-01 19:32:00,
2013-03-01 13:42:00,29.0,21.0,-100.00,NNW,338,13.0,20.0,72,0.00,,,0.00,692.000000,,2013-03-01 19:42:00,
2013-03-01 13:51:00,29.0,21.0,-100.00,NNW,338,13.0,20.0,72,0.00,,,0.00,692.000000,,2013-03-01 19:51:00,
2013-03-01 14:21:00,29.0,21.0,-100.00,NNW,345,15.0,21.0,71,0.00,,,0.00,696.000000,,2013-03-01 20:21:00,
2013-03-01 14:32:00,29.0,21.0,-100.00,NNW,345,15.0,21.0,71,0.00,,,0.00,696.000000,,2013-03-01 20:32:00,
2013-03-01 14:42:00,29.0,21.0,-100.00,NNW,345,15.0,21.0,71,0.00,,,0.00,696.000000,,2013-03-01 20:42:00,
2013-03-01 14:52:00,29.0,21.0,-100.00,NNW,345,15.0,21.0,71,0.00,,,0.00,696.000000,,2013-03-01 20:52:00,
2013-03-01 15:21:00,30.0,21.0,-100.00,North,354,13.0,21.0,70,0.00,,,0.00,587.000000,,2013-03-01 21:21:00,
2013-03-01 15:32:00,30.0,21.0,-100.00,North,354,13.0,21.0,70,0.00,,,0.00,587.000000,,2013-03-01 21:32:00,
2013-03-01 15:42:00,30.0,21.0,-100.00,North,354,13.0,21.0,70,0.00,,,0.00,587.000000,,2013-03-01 21:42:00,
2013-03-01 15:51:00,30.0,21.0,-100.00,North,354,13.0,21.0,70,0.00,,,0.00,587.000000,,2013-03-01 21:51:00,
2013-03-01 16:21:00,31.0,22.0,-100.00,North,354,12.0,20.0,68,0.00,,,0.00,569.000000,,2013-03-01 22:21:00,
2013-03-01 16:32:00,31.0,22.0,-100.00,North,354,12.0,20.0,68,0.00,,,0.00,569.000000,,2013-03-01 22:32:00,
2013-03-01 16:42:00,31.0,22.0,-100.00,North,354,12.0,20.0,68,0.00,,,0.00,569.000000,,2013-03-01 22:42:00,
2013-03-01 16:51:00,31.0,22.0,-100.00,North,354,12.0,20.0,68,0.00,,,0.00,569.000000,,2013-03-01 22:51:00,
2013-03-01 17:21:00,30.0,20.0,-100.00,North,355,10.0,16.0,67,0.00,,,0.00,353.000000,,2013-03-01 23:21:00,
2013-03-01 17:32:00,30.0,20.0,-100.00,North,355,10.0,16.0,67,0.00,,,0.00,353.000000,,2013-03-01 23:32:00,
2013-03-01 17:41:00,30.0,20.0,-100.00,North,355,10.0,16.0,67,0.00,,,0.00,353.000000,,2013-03-01 23:41:00,
2013-03-01 17:52:00,30.0,20.0,-100.00,North,355,10.0,16.0,67,0.00,,,0.00,353.000000,,2013-03-01 23:52:00,
2013-03-01 18:22:00,28.0,20.0,-100.00,North,352,8.0,15.0,70,0.00,,,-99.99,143.000000,,2013-03-02 00:22:00,
2013-03-01 18:32:00,28.0,20.0,-100.00,North,352,8.0,15.0,70,0.00,,,-99.99,143.000000,,2013-03-02 00:32:00,
2013-03-01 18:42:00,28.0,20.0,-100.00,North,352,8.0,15.0,70,0.00,,,-99.99,143.000000,,2013-03-02 00:42:00,
2013-03-01 18:52:00,28.0,20.0,-100.00,North,352,8.0,15.0,70,0.00,,,-99.99,143.000000,,2013-03-02 00:52:00,
2013-03-01 19:21:00,23.0,20.0,-100.00,North,2,4.0,11.0,88,0.00,,,0.00,12.000000,,2013-03-02 01:21:00,
2013-03-01 19:31:00,23.0,20.0,-100.00,North,2,4.0,11.0,88,0.00,,,0.00,12.000000,,2013-03-02 01:31:00,
2013-03-01 19:41:00,23.0,20.0,-100.00,North,2,4.0,11.0,88,0.00,,,0.00,12.000000,,2013-03-02 01:41:00,
2013-03-01 19:51:00,23.0,20.0,-100.00,North,2,4.0,11.0,88,0.00,,,0.00,12.000000,,2013-03-02 01:51:00,
2013-03-01 20:22:00,20.0,18.0,-100.00,WNW,289,1.0,6.0,92,0.00,,,0.00,0.000000,,2013-03-02 02:22:00,
2013-03-01 20:32:00,20.0,18.0,-100.00,WNW,289,1.0,6.0,92,0.00,,,0.00,0.000000,,2013-03-02 02:32:00,
2013-03-01 20:42:00,20.0,18.0,-100.00,WNW,289,1.0,6.0,92,0.00,,,0.00,0.000000,,2013-03-02 02:42:00,
2013-03-01 20:52:00,20.0,18.0,-100.00,WNW,289,1.0,6.0,92,0.00,,,0.00,0.000000,,2013-03-02 02:52:00,
2013-03-01 21:21:00,18.0,18.0,-100.00,NW,308,4.0,5.0,100,0.00,,,0.00,0.000000,,2013-03-02 03:21:00,
2013-03-01 21:32:00,18.0,18.0,-100.00,NW,308,4.0,5.0,100,0.00,,,0.00,0.000000,,2013-03-02 03:32:00,
2013-03-01 21:42:00,18.0,18.0,-100.00,NW,308,4.0,5.0,100,0.00,,,0.00,0.000000,,2013-03-02 03:42:00,
2013-03-01 21:52:00,18.0,18.0,-100.00,NW,308,4.0,5.0,100,0.00,,,0.00,0.000000,,2013-03-02 03:52:00,
2013-03-01 22:21:00,15.0,15.0,-100.00,NW,323,3.0,5.0,100,0.00,,,0.00,0.000000,,2013-03-02 04:21:00,
2013-03-01 22:32:00,15.0,15.0,-100.00,NW,323,3.0,5.0,100,0.00,,,0.00,0.000000,,2013-03-02 04:32:00,
2013-03-01 22:42:00,15.0,15.0,-100.00,NW,323,3.0,5.0,100,0.00,,,0.00,0.000000,,2013-03-02 04:42:00,
2013-03-01 22:52:00,15.0,15.0,-100.00,NW,323,3.0,5.0,100,0.00,,,0.00,0.000000,,2013-03-02 04:52:00,
2013-03-01 23:22:00,15.0,15.0,-100.00,NNW,327,3.0,6.0,100,0.00,,,0.00,0.000000,,2013-03-02 05:22:00,
2013-03-01 23:32:00,15.0,15.0,-100.00,NNW,327,3.0,6.0,100,0.00,,,0.00,0.000000,,2013-03-02 05:32:00,
2013-03-01 23:42:00,15.0,15.0,-100.00,NNW,327,3.0,6.0,100,0.00,,,0.00,0.000000,,2013-03-02 05:42:00,
2013-03-01 23:52:00,15.0,15.0,-100.00,NNW,327,3.0,6.0,100,0.00,,,0.00,0.000000,,2013-03-02 05:52:00,